Weather History for Miles City, MT

Change the Weather History Date:

Tuesday, July 31, 2012

  Actual Average Record
Temperature  
Mean Temperature 86 °F 76 °F  
Max Temperature 100 °F 90 °F 105 °F (2007)
Min Temperature 71 °F 61 °F 47 °F (1995)
Degree Days  
Heating Degree Days 0 0  
Month to date heating degree days 0 10  
Since 1 June heating degree days 21 101  
Since 1 July heating degree days 0 12  
Cooling Degree Days 21 11  
Month to date cooling degree days 509 288  
Year to date cooling degree days 761 415  
Since 1 June cooling degree days 716 395  
Growing Degree Days 36 (Base 50)    
Moisture  
Dew Point 51 °F    
Average Humidity 32    
Maximum Humidity 49    
Minimum Humidity 14    
Precipitation  
Precipitation T in 0.05 in 1.72 in (2001)
Month to date precipitation 0.79 1.64  
Year to date precipitation 3.78 8.85  
Sea Level Pressure  
Sea Level Pressure 29.88 in    
Wind  
Wind Speed 11 mph (NNW)    
Max Wind Speed 45 mph    
Max Gust Speed 51 mph    
Visibility 10 miles    
Events Rain , Thunderstorm    
T = Trace of Precipitation, MM = Missing Value Source: NWS Daily Summary

Daily Weather History Graph

Daily Weather History Graph

Search for Another Location

Airport:

Trip Planner

Search our weather history database for the weather conditions in past years. The results will help you decide how hot, cold, wet, or windy it might be!

Date:

Astronomy

Jul. 31, 2012 Rise Set
Actual Time 5:44 AM MDT 8:34 PM MDT
Civil Twilight 5:09 AM MDT 9:09 PM MDT
Nautical Twilight 4:24 AM MDT 9:54 PM MDT
Astronomical Twilight 3:31 AM MDT 10:46 PM MDT
Moon 7:24 PM MDT (7/31) 4:06 AM MDT (7/31)
Length of Visible Light 16h 00m
Length of Day
14h 50m
Waxing Gibbous, 97% of the Moon is Illuminated
Jul 31
Waxing Gibbous
Aug 1
Full
Aug 9
Last Quarter
Aug 17
New
Aug 24
First Quarter

Hourly Weather History & Observations

Time (MDT) Temp. Heat Index Dew Point Humidity Pressure Visibility Wind Dir Wind Speed Gust Speed Precip Events Conditions
12:53 AM 84.9 °F - 48.9 °F 29% 29.82 in 10.0 mi South 9.2 mph 27.6 mph N/A   Clear
1:02 AM 78.8 °F - 51.8 °F 39% 29.97 in 10.0 mi NW 23.0 mph 39.1 mph N/A   Squalls
1:10 AM 78.8 °F - 51.8 °F 39% 29.99 in 10.0 mi NNW 36.8 mph 50.6 mph N/A Thunderstorm Mostly Cloudy
1:53 AM 73.0 °F - 55.9 °F 55% 29.91 in 10.0 mi North 26.5 mph 34.5 mph 0.00 in Rain , Thunderstorm Light Rain
2:04 AM 73.4 °F - 55.4 °F 53% 29.99 in 10.0 mi North 26.5 mph 39.1 mph 0.00 in Rain Light Rain
2:53 AM 73.9 °F - 55.0 °F 52% 29.89 in 10.0 mi NNE 26.5 mph 34.5 mph 0.00 in   Clear
3:53 AM 73.9 °F - 53.1 °F 48% 29.81 in 10.0 mi ENE 24.2 mph 33.4 mph 0.00 in   Partly Cloudy
4:53 AM 75.9 °F - 51.1 °F 42% 29.81 in 10.0 mi East 12.7 mph - N/A   Clear
5:53 AM 73.9 °F - 51.1 °F 45% 29.83 in 10.0 mi Calm Calm - N/A   Clear
6:53 AM 75.0 °F - 52.0 °F 44% 29.85 in 10.0 mi SSE 9.2 mph - N/A   Clear
7:53 AM 75.0 °F - 54.0 °F 48% 29.87 in 10.0 mi SSE 10.4 mph - N/A   Clear
8:53 AM 79.0 °F - 55.0 °F 44% 29.88 in 10.0 mi SE 10.4 mph - N/A   Clear
9:53 AM 82.9 °F 81.9 °F 54.0 °F 37% 29.88 in 10.0 mi Variable 3.5 mph - N/A   Clear
10:53 AM 88.0 °F 85.7 °F 53.1 °F 30% 29.87 in 10.0 mi WSW 6.9 mph - N/A   Clear
11:53 AM 91.9 °F - 52.0 °F 26% 29.86 in 10.0 mi West 9.2 mph - N/A   Clear
12:53 PM 93.2 °F - 51.8 °F 24% 29.94 in 10.0 mi WNW 15.0 mph 20.7 mph N/A   Clear
1:53 PM 95.0 °F - 48.9 °F 21% 29.86 in 10.0 mi NW 13.8 mph 24.2 mph N/A   Clear
2:53 PM 97.0 °F - 50.0 °F 20% 29.84 in 10.0 mi North 8.1 mph - N/A   Clear
3:53 PM 97.0 °F - 45.0 °F 17% 29.83 in 10.0 mi WNW 10.4 mph 17.3 mph N/A   Clear
4:53 PM 99.0 °F - 42.1 °F 14% 29.82 in 10.0 mi NW 10.4 mph - N/A   Clear
5:53 PM 98.1 °F - 41.0 °F 14% 29.82 in 10.0 mi NNW 15.0 mph 19.6 mph N/A   Clear
10:53 PM 80.6 °F - 46.4 °F 30% 29.93 in 10.0 mi North 5.8 mph - N/A   Clear
11:53 PM 81.0 °F - 48.0 °F 31% 29.88 in 10.0 mi Calm Calm - N/A   Partly Cloudy